[[{"header":{"parameterUnit":"m.s-1","parameterCategory":1,"la1":30.2991,"la2":30.254,"lo1":-89.0895,"lo2":-89.0444,"dy":0.0017,"dx":0.0017,"nx":28,"ny":28,"refTime":"2023-07-26T21:00:00:Z","depth":0,"parameterNumber":2,"parameterNumberName":"U-component_of_WINDS"},"data":[0,0,0,0,0,0,0,0,0,0,0,0,0,0,0,0,0,0,0,0,0,0,0,0,0,0,0,0,0,0,0,0,0,0,0,0,0,0,0,0,0,0,0,0,0,0,0,0,0,0,0,0,0,0,0,0,0,0,1.1376,1.1378,0,1.1526,1.1527,1.1529,1.1584,1.1584,1.1583,1.1583,1.1735,1.174,1.1744,0,0,0,0,0,0,0,0,0,0,0,0,0,1.1138,1.1142,1.1376,1.1378,1.138,1.1525,1.1527,1.1529,1.1584,1.1584,1.1583,1.1582,1.1734,1.1739,1.1745,0,0,0,0,0,0,0,0,0,0,0,0,0,1.126,1.1143,1.1376,1.1425,1.1431,1.1525,1.1527,1.153,1.1584,1.1584,1.1583,1.1582,1.1732,1.1739,1.1746,1.1802,0,0,1.1766,1.1769,0,0,0,0,0,0,0,0,1.1253,1.1268,1.1416,1.1422,1.1428,1.1535,1.1499,1.1621,1.1584,1.1526,1.1583,1.1582,1.167,1.1681,1.1711,1.1809,1.1816,1.1767,1.1771,1.1774,1.1776,0,0,0,0,0,0,0,1.1244,1.1262,1.1435,1.1418,1.1425,1.1439,1.1456,1.1523,1.16,1.1531,1.1535,1.1552,1.1673,1.1704,1.1715,1.1818,1.1767,1.1773,1.1777,1.178,1.197,1.1971,0,0,0,0,0,0,1.1228,1.1255,1.1431,1.144,1.1337,1.1444,1.1462,1.1502,1.1599,1.1614,1.1553,1.1554,1.1693,1.1707,1.1721,1.1793,1.1774,1.178,1.1784,1.1969,1.197,1.1971,0,0,0,0,0,0,1.1222,1.1243,1.1425,1.1349,1.1373,1.1449,1.1493,1.1505,1.1537,1.1616,1.163,1.1571,1.1693,1.1711,1.1781,1.1799,1.1783,1.1789,1.1968,1.1969,1.1971,1.1938,0,0,0,0,0,0,1.1215,1.124,1.1263,1.1349,1.1377,1.1483,1.1494,1.1509,1.1548,1.1552,1.1637,1.165,1.1694,1.1771,1.1788,1.1808,1.1795,1.1966,1.1968,1.197,1.1938,1.1938,1.1938,0,0,0,0,0,1.1206,1.1248,1.1264,1.1285,1.1406,1.1484,1.15,1.1549,1.1549,1.1573,1.1623,1.1647,1.1794,1.1778,1.1797,1.182,1.1966,1.1968,1.197,1.1938,1.1938,1.1938,0,0,0,0,0,0,1.1162,1.126,1.1279,1.1349,1.1408,1.1493,1.1523,1.1548,1.1608,1.1609,1.1668,1.1687,1.1752,1.1793,1.1773,1.1879,1.1881,1.1888,1.185,1.1851,1.1851,1.184,1.18,0,0,0,0,0,1.116,1.1215,1.1298,1.1352,1.138,1.1447,1.1482,1.1516,1.1579,1.1604,1.166,1.172,1.178,1.1818,1.1877,1.1944,1.1963,1.1969,1.1969,1.1969,1.1974,1.2012,1.2015,1.1978,1.1978,1.1978,0,0,1.1158,1.1218,1.1249,1.1345,1.1394,1.1449,1.1467,1.1525,1.1566,1.1613,1.1682,1.1725,1.1796,1.1865,1.1898,1.1901,1.1988,1.1972,1.1971,1.1976,1.2014,1.2018,1.2021,1.198,1.198,1.1979,0,0,1.1181,1.1232,1.1283,1.1332,1.1406,1.145,1.1462,1.1543,1.1574,1.1645,1.168,1.173,1.1832,1.1881,1.1919,1.1961,1.1985,1.1978,1.198,1.2016,1.2019,1.2022,1.2036,1.2041,1.1983,1.1983,1.1983,0,1.1168,1.1253,1.1305,1.1361,1.1402,1.1446,1.1498,1.1543,1.1632,1.1659,1.1662,1.179,1.1841,1.1922,1.1932,1.1961,1.1977,1.1969,1.2014,1.2018,1.2021,1.2036,1.2041,1.1981,1.1982,1.1982,1.1982,0,1.1233,1.1291,1.1323,1.1409,1.1453,1.1506,1.1567,1.1605,1.1635,1.1678,1.1749,1.1812,1.1885,1.1906,1.1936,1.1991,1.1991,1.2003,1.2006,1.2023,1.2037,1.2043,1.198,1.198,1.198,1.1981,0,0,1.1232,1.1346,1.1357,1.1396,1.1481,1.1527,1.1582,1.1653,1.1685,1.1746,1.1793,1.1878,1.189,1.1933,1.1968,1.2,1.2028,1.2009,1.2011,1.201,1.2092,1.2082,1.2088,1.2045,1.2046,1.2047,1.2086,0,1.1266,1.1367,1.1416,1.1495,1.1549,1.1592,1.164,1.1697,1.1739,1.1791,1.1837,1.1896,1.1908,1.1934,1.1967,1.2018,1.2046,1.2016,1.2089,1.2091,1.207,1.2095,1.2085,1.2119,1.2092,1.2093,1.2094,0,1.1319,1.1379,1.1464,1.1542,1.1567,1.1609,1.1678,1.1727,1.1793,1.1821,1.1869,1.1903,1.1963,1.1962,1.2044,1.2023,1.2056,1.2085,1.2087,1.2096,1.2093,1.2104,1.2131,1.2136,1.2103,1.2103,1.2102,0,1.1309,1.1411,1.1475,1.1508,1.1601,1.1629,1.167,1.1735,1.1774,1.1834,1.186,1.1926,1.1963,1.2013,1.2064,1.2059,1.2141,1.2145,1.2166,1.2165,1.2181,1.218,1.2213,1.2203,1.2203,1.2203,1.2203,0,1.1342,1.1392,1.1472,1.1511,1.1568,1.1624,1.1678,1.1722,1.1779,1.1827,1.1868,1.1912,1.1977,1.203,1.207,1.2132,1.2148,1.2172,1.2182,1.2168,1.2165,1.2191,1.2189,1.2204,1.2204,1.2204,1.2204,0,1.134,1.1396,1.1468,1.1551,1.1573,1.1611,1.1681,1.1721,1.1765,1.1825,1.1842,1.1911,1.1975,1.2031,1.2115,1.2142,1.2205,1.2218,1.2183,1.2188,1.2206,1.2204,1.2258,1.2267,1.225,1.225,1.225,0,1.1357,1.1397,1.1483,1.1518,1.1558,1.1614,1.1655,1.1711,1.1751,1.1829,1.1858,1.1925,1.1981,1.2081,1.2138,1.2203,1.2217,1.2231,1.2227,1.2212,1.2217,1.2214,1.2218,1.2231,1.2231,1.2231,1.2231,0,1.1381,1.1407,1.1464,1.153,1.1577,1.1632,1.1688,1.1715,1.1781,1.1824,1.189,1.1933,1.2019,1.2085,1.2155,1.2197,1.2225,1.2232,1.224,1.2226,1.2204,1.2216,1.2182,1.223,1.223,1.223,1.223,1.223,1.1389,1.1426,1.1493,1.1555,1.1603,1.1654,1.1695,1.1744,1.18,1.1874,1.1904,1.197,1.2035,1.2132,1.2174,1.2227,1.2231,1.2243,1.2247,1.2249,1.2246,1.2196,1.224,1.224,1.224,1.224,1.224,0,1.1415,1.146,1.1516,1.1593,1.1642,1.1664,1.1727,1.1766,1.1824,1.1882,1.1937,1.2011,1.2075,1.2137,1.2204,1.2234,1.2249,1.225,1.2248,1.2257,1.2238,1.2224,1.2237,1.2237,1.2237,1.2237,1.2237,1.2237,1.1434,1.1497,1.153,1.1618,1.1663,1.1728,1.1762,1.181,1.1856,1.1938,1.1991,1.2031,1.2091,1.2162,1.2222,1.2238,1.2261,1.2258,1.2278,1.2259,1.2259,1.2258,1.2245,1.2263,1.2263,1.2293,1.2294,1.2294]},{"header":{"parameterUnit":"m.s-1","parameterCategory":1,"la1":30.2991,"la2":30.254,"lo1":-89.0895,"lo2":-89.0444,"dy":0.0017,"dx":0.0017,"nx":28,"ny":28,"refTime":"2023-07-26T21:00:00:Z","depth":0,"parameterNumber":3,"parameterNumberName":"V-component_of_WINDS"},"data":[0,0,0,0,0,0,0,0,0,0,0,0,0,0,0,0,0,0,0,0,0,0,0,0,0,0,0,0,0,0,0,0,0,0,0,0,0,0,0,0,0,0,0,0,0,0,0,0,0,0,0,0,0,0,0,0,0,0,3.2199,3.2198,0,3.2144,3.2143,3.2143,3.2093,3.2093,3.2092,3.2091,3.203,3.2029,3.2028,0,0,0,0,0,0,0,0,0,0,0,0,0,3.2257,3.2256,3.2199,3.2198,3.2198,3.2144,3.2143,3.2142,3.2093,3.2093,3.2092,3.2091,3.2031,3.2029,3.2028,0,0,0,0,0,0,0,0,0,0,0,0,0,3.222,3.2256,3.2199,3.2167,3.2163,3.2144,3.2143,3.2142,3.2093,3.2092,3.2092,3.2091,3.2031,3.203,3.2028,3.2035,0,0,3.2023,3.2022,0,0,0,0,0,0,0,0,3.2222,3.2218,3.2172,3.2169,3.2165,3.2125,3.2141,3.2106,3.2094,3.212,3.2091,3.209,3.2062,3.2058,3.2049,3.2032,3.2029,3.2023,3.2022,3.2021,3.2021,0,0,0,0,0,0,0,3.2225,3.222,3.2177,3.2171,3.2167,3.2153,3.2147,3.2134,3.2096,3.2117,3.2114,3.2108,3.206,3.2051,3.2047,3.2029,3.2023,3.2021,3.202,3.202,3.2013,3.2014,0,0,0,0,0,0,3.2233,3.2222,3.2179,3.2175,3.2192,3.2153,3.2146,3.2138,3.2096,3.2089,3.2109,3.2106,3.2054,3.2049,3.2045,3.205,3.2021,3.2019,3.2019,3.2012,3.2013,3.2014,0,0,0,0,0,0,3.2234,3.2229,3.2181,3.2198,3.2191,3.2153,3.2145,3.2138,3.2129,3.209,3.2082,3.2107,3.2053,3.2047,3.2038,3.2047,3.2019,3.2017,3.2011,3.2012,3.2013,3.206,0,0,0,0,0,0,3.2236,3.223,3.2234,3.2198,3.219,3.2176,3.2145,3.2137,3.2127,3.2122,3.2086,3.2079,3.2052,3.2041,3.2036,3.2044,3.2016,3.201,3.2012,3.2013,3.2057,3.2062,3.2067,0,0,0,0,0,3.2238,3.2248,3.2234,3.2229,3.2194,3.2177,3.2172,3.2142,3.2128,3.213,3.2105,3.208,3.2047,3.204,3.2035,3.2042,3.2009,3.2011,3.2013,3.2055,3.2061,3.2067,0,0,0,0,0,0,3.2284,3.2243,3.2227,3.2226,3.2205,3.2169,3.2171,3.215,3.2132,3.2128,3.209,3.2083,3.2077,3.2058,3.2052,3.2046,3.2025,3.2026,3.2058,3.2064,3.2069,3.2073,3.2015,0,0,0,0,0,3.2294,3.2285,3.2249,3.2252,3.2242,3.2209,3.22,3.2179,3.2156,3.2146,3.2121,3.2098,3.2082,3.2072,3.2055,3.2054,3.2045,3.2057,3.2062,3.2066,3.2067,3.2064,3.2068,3.202,3.202,3.202,0,0,3.2314,3.2291,3.2287,3.226,3.2242,3.2232,3.2202,3.2193,3.2185,3.2144,3.2134,3.2115,3.2086,3.2081,3.2077,3.2065,3.2078,3.2068,3.2072,3.207,3.2066,3.2071,3.2075,3.2021,3.2021,3.2021,0,0,3.2346,3.2328,3.2328,3.2311,3.2284,3.2261,3.2261,3.2228,3.2214,3.2203,3.2173,3.2162,3.2135,3.2116,3.2103,3.2128,3.2104,3.2124,3.2148,3.2146,3.215,3.2153,3.216,3.2164,3.2125,3.2125,3.2125,0,3.2374,3.236,3.233,3.2323,3.2312,3.2276,3.2275,3.2259,3.2228,3.222,3.2207,3.2173,3.2152,3.2141,3.2147,3.2138,3.2136,3.2127,3.2152,3.2155,3.2157,3.2164,3.2167,3.2127,3.2127,3.2127,3.2127,0,3.2396,3.2386,3.2389,3.2361,3.235,3.2346,3.2314,3.2305,3.2285,3.2263,3.2252,3.2225,3.2202,3.2198,3.2178,3.2184,3.2178,3.2159,3.2137,3.2165,3.217,3.2173,3.2131,3.213,3.2129,3.2129,0,0,3.2454,3.2411,3.2412,3.2399,3.2367,3.2358,3.2352,3.2331,3.2324,3.2303,3.2296,3.2275,3.2257,3.2242,3.2219,3.2218,3.2238,3.2199,3.2197,3.2206,3.2242,3.2255,3.2259,3.2222,3.2223,3.2223,3.2244,0,3.248,3.2469,3.2441,3.2438,3.2428,3.2394,3.2388,3.2367,3.2347,3.2334,3.231,3.2296,3.2274,3.2265,3.2262,3.2236,3.2244,3.2234,3.2213,3.2213,3.2221,3.2262,3.2277,3.2298,3.2246,3.2246,3.2247,0,3.2509,3.2492,3.2488,3.2457,3.2451,3.2447,3.2425,3.2414,3.2389,3.2374,3.2358,3.2333,3.2322,3.2302,3.2287,3.2281,3.227,3.2256,3.2256,3.2252,3.2231,3.2258,3.2304,3.2307,3.225,3.225,3.2249,0,3.2551,3.2527,3.2522,3.2511,3.2474,3.2472,3.2456,3.243,3.2419,3.24,3.2392,3.2371,3.2359,3.2342,3.2312,3.23,3.2299,3.2277,3.2284,3.2285,3.2285,3.2285,3.2328,3.228,3.228,3.228,3.228,0,3.2583,3.2581,3.254,3.2536,3.2533,3.2501,3.2498,3.2479,3.2456,3.2447,3.2416,3.2408,3.2368,3.2354,3.233,3.232,3.2315,3.2301,3.2295,3.2304,3.2305,3.2296,3.2293,3.2281,3.2281,3.2281,3.228,0,3.2629,3.2602,3.2593,3.2559,3.255,3.255,3.252,3.2514,3.2492,3.248,3.2476,3.244,3.2423,3.2391,3.2364,3.2347,3.2342,3.2331,3.2351,3.2347,3.2356,3.2355,3.2394,3.2397,3.2348,3.2348,3.2349,0,3.265,3.2649,3.2615,3.2608,3.2593,3.2581,3.257,3.2538,3.2528,3.2499,3.2496,3.2477,3.2459,3.2432,3.2403,3.2382,3.2369,3.2384,3.2366,3.2375,3.2368,3.2368,3.2367,3.2388,3.2389,3.2389,3.239,0,3.2691,3.2678,3.2664,3.2646,3.2634,3.2617,3.2598,3.2594,3.2557,3.2546,3.2529,3.2515,3.2488,3.2469,3.2443,3.2425,3.2401,3.2396,3.2397,3.2405,3.2417,3.241,3.2361,3.2395,3.2395,3.2394,3.2394,3.2394,3.2725,3.2721,3.2698,3.2683,3.2666,3.265,3.2643,3.262,3.2606,3.2582,3.2564,3.2548,3.2521,3.2485,3.2468,3.2453,3.2442,3.2443,3.2443,3.2443,3.2447,3.242,3.2448,3.2448,3.2448,3.2448,3.2448,0,3.2763,3.2746,3.2733,3.2709,3.2697,3.2678,3.2657,3.2647,3.2634,3.2612,3.2596,3.2576,3.2556,3.2526,3.2504,3.2498,3.2486,3.2493,3.2492,3.2488,3.2458,3.246,3.2503,3.2503,3.2503,3.2503,3.2503,3.2503,3.2782,3.2775,3.2759,3.2743,3.2725,3.271,3.27,3.2684,3.2666,3.2645,3.263,3.2611,3.2585,3.256,3.2541,3.2532,3.2525,3.2535,3.2523,3.2496,3.249,3.2486,3.2487,3.2534,3.2534,3.2554,3.2554,3.2554]}]]